Wind_Speed
17 16 16 18 16 9 3 2 3 3 3 3 3 2 2 0 3 3 4 1 3 3 3 2 4 6 6 7 8 6 5 1 3 4 3 3 15 23 22 27 31 27 28 25 22 19 18 19 17 18 18 21 22 21 20 18 18 19 19 19 18 18 18 18 17 16 14 14 13 13 14 14 14 14 14 13 13 12 12 12 11 11 11 11 11 11 11 11 11 11 12 12 12 14 17 18 19
16 14 16 17 11 6 2 3 3 3 5 4 4 2 3 2 3 5 5 1 4 2 2 7 9 9 10 9 7 6 7 6 4 5 4 14 22 21 27 31 30 29 28 25 24 21 20 19 18 19 18 20 22 20 19 18 18 19 19 19 18 18 18 17 17 16 14 13 13 13 13 13 13 13 14 13 12 12 11 10 10 10 10 10 11 10 9 10 10 10 11 12 13 17 19 19 19
16 15 18 16 8 5 2 4 3 1 3 3 5 3 3 3 2 5 4 5 8 8 8 8 8 7 7 6 5 5 3 4 8 7 7 18 18 18 29 31 29 29 27 26 24 22 22 19 18 19 18 19 21 20 19 18 18 18 18 19 18 17 17 17 16 15 14 13 13 12 13 13 13 13 13 12 12 11 10 9 9 9 9 9 10 8 8 10 10 9 10 12 14 18 20 19 18
14 15 17 11 5 4 4 3 2 3 0 4 4 5 5 5 6 5 3 7 11 9 7 5 4 3 3 7 4 6 6 4 7 9 8 14 17 23 30 30 30 28 27 26 24 23 22 19 19 19 18 20 20 20 18 18 17 17 18 18 18 17 17 17 16 15 14 13 13 12 12 12 12 12 12 11 11 10 10 9 9 8 8 8 8 8 8 9 9 9 10 12 15 18 19 19 18
11 13 10 5 3 2 3 1 1 2 2 4 3 7 7 8 8 6 3 6 9 7 6 5 3 2 3 6 3 4 7 8 8 11 13 16 24 30 30 30 29 27 27 25 24 24 21 20 20 19 19 20 20 19 18 18 17 17 18 18 18 17 17 16 16 15 14 13 12 12 12 11 11 11 11 10 9 9 8 8 7 7 7 6 7 8 9 9 9 9 11 13 15 16 17 17 17
11 12 6 4 2 2 2 1 1 2 4 4 3 8 9 10 11 9 5 2 2 1 3 4 5 4 2 1 1 4 9 12 10 13 20 24 30 32 29 29 28 27 27 25 25 23 21 20 20 20 19 19 19 19 19 18 17 18 18 18 18 17 17 16 15 14 13 13 12 11 10 10 9 9 9 8 8 7 7 6 6 6 6 5 6 7 8 9 9 9 10 13 14 14 15 16 15
11 9 3 4 2 1 4 2 3 4 5 5 4 10 12 12 12 10 6 2 2 3 3 4 10 9 2 1 3 4 11 14 13 18 29 33 33 31 29 28 27 27 26 25 25 23 22 20 20 20 19 19 20 20 19 19 18 18 18 18 17 17 16 15 14 14 13 12 11 10 9 8 7 7 6 6 6 6 6 5 5 5 5 5 5 6 7 8 8 8 9 11 13 13 14 14 14
7 3 1 4 2 2 3 3 3 4 5 4 5 10 14 15 12 11 7 4 3 1 2 7 10 8 1 2 3 4 12 18 22 29 38 38 34 31 29 28 28 26 25 25 24 23 21 21 20 19 20 20 20 21 19 18 18 17 18 17 17 16 15 15 14 13 12 11 11 9 8 7 5 5 4 4 4 5 5 4 5 5 5 5 6 7 7 8 8 7 7 9 11 13 14 14 13
3 1 1 3 2 1 1 2 3 4 5 7 8 11 15 14 11 10 10 7 4 6 8 8 5 7 2 4 4 4 13 25 33 36 38 37 34 32 30 29 28 27 26 25 23 22 21 21 21 20 21 21 20 20 18 18 18 17 17 17 17 16 15 14 13 12 11 11 9 8 6 5 5 4 3 3 3 3 3 3 5 5 6 6 7 8 7 7 7 7 7 8 10 12 14 14 12
2 1 0 2 3 1 2 3 4 4 5 7 8 12 14 11 9 9 12 11 5 7 7 5 5 8 7 6 4 3 16 32 36 33 34 36 34 32 29 27 26 28 27 25 24 23 21 20 20 21 20 20 20 18 18 18 17 17 16 16 16 15 15 14 12 11 10 10 8 6 5 4 4 4 3 3 3 2 2 3 5 6 7 7 8 8 7 7 7 7 6 7 8 9 12 12 11
2 2 2 2 2 3 3 4 5 4 6 7 8 13 12 9 8 8 13 9 7 9 7 7 7 9 9 5 2 9 25 35 33 30 34 37 34 32 30 28 26 27 28 27 25 23 21 19 19 19 19 19 18 18 18 18 17 17 16 16 16 15 14 13 12 11 10 8 6 5 4 4 4 4 4 3 3 3 3 3 4 6 7 8 8 8 7 7 7 7 6 6 8 8 8 9 9
2 2 3 3 3 4 5 4 5 5 7 6 8 13 9 7 7 9 13 6 8 7 5 5 7 9 7 3 1 13 26 28 30 32 35 37 34 32 31 30 28 27 29 28 26 24 22 20 18 18 18 18 18 18 17 17 17 16 16 16 15 14 13 12 11 10 8 7 5 5 4 5 5 6 7 6 6 6 6 5 4 5 6 8 8 8 8 7 7 7 7 6 7 7 7 7 7
2 3 5 2 4 4 4 4 4 4 5 5 8 11 6 7 8 11 12 4 11 7 3 7 11 8 5 4 4 11 17 21 29 34 36 36 34 32 31 30 29 28 28 27 25 23 22 20 19 17 17 17 17 17 16 16 16 16 15 15 14 13 12 11 10 8 7 6 6 5 5 6 7 7 9 9 9 9 8 7 6 5 5 6 7 8 8 8 7 7 7 6 6 7 7 6 5
3 2 5 2 2 4 4 3 4 4 4 6 8 10 6 6 9 10 5 4 4 6 6 10 13 10 6 5 5 6 11 23 32 35 35 35 34 33 31 30 30 29 27 25 24 22 21 20 19 17 16 17 16 16 15 15 15 15 15 14 13 12 11 9 8 8 7 7 7 7 7 7 7 8 9 10 11 11 10 9 7 6 6 6 7 8 9 8 7 7 7 6 6 6 6 6 5
5 1 4 3 2 3 4 4 5 5 5 7 8 9 8 8 8 8 3 5 3 3 11 9 6 7 9 11 8 9 15 29 35 35 35 34 34 33 32 31 29 27 25 24 23 21 21 19 18 17 17 17 17 16 15 14 14 15 14 13 12 10 9 8 8 7 7 8 9 9 8 8 8 9 9 10 11 11 11 11 9 8 7 7 8 9 9 8 7 6 6 6 5 5 4 5 5
4 2 2 2 3 4 4 4 5 5 5 7 9 8 9 11 6 5 3 6 7 5 7 5 5 2 12 11 12 19 26 34 36 36 36 34 33 32 31 29 27 25 24 23 21 20 20 19 18 17 17 17 17 17 15 14 14 14 13 12 11 10 9 8 8 8 9 10 10 10 9 9 9 8 9 9 10 10 11 11 11 10 9 8 8 9 9 7 6 5 4 4 3 3 2 3 3
2 2 3 3 4 5 4 5 5 5 6 8 10 8 9 12 5 2 4 7 10 6 3 2 2 3 9 10 19 29 33 37 38 38 33 31 30 28 27 26 25 23 22 21 20 20 19 18 17 17 17 16 17 16 15 14 14 13 13 12 11 10 9 9 8 9 9 9 9 8 8 8 8 8 8 8 8 9 9 10 10 11 10 9 8 8 7 5 4 3 2 1 0 1 1 0 2
3 3 5 5 5 6 6 8 6 5 6 7 10 9 9 10 5 1 5 8 9 8 6 6 8 10 13 20 28 32 35 36 35 34 28 25 24 24 23 24 24 22 20 20 19 20 20 18 17 17 16 16 16 16 16 15 14 14 13 13 11 10 10 9 9 9 9 8 7 6 6 5 6 7 7 7 7 7 7 7 7 9 9 9 8 6 5 4 3 2 1 1 2 2 2 1 2
5 4 5 6 6 7 7 8 5 5 6 7 11 9 6 8 6 3 4 4 7 10 6 7 12 14 18 24 29 29 29 29 30 30 25 22 24 24 22 23 23 22 21 20 20 21 20 19 17 17 17 17 17 17 17 16 15 15 14 13 12 11 10 10 10 10 9 8 6 5 3 3 3 5 5 6 7 7 6 6 5 5 6 7 6 6 4 3 2 1 2 3 3 3 3 3 3
5 4 5 6 6 7 7 7 8 7 7 8 11 7 6 9 5 0 5 7 7 10 6 6 13 16 18 19 24 26 22 19 21 24 22 21 22 25 25 25 24 24 24 22 22 22 20 19 18 18 18 18 18 18 18 17 17 16 15 13 12 12 11 11 11 10 9 7 6 4 3 2 2 3 3 3 3 5 5 5 4 3 3 3 3 3 3 3 2 3 3 4 5 5 5 6 7
4 5 6 5 7 8 8 10 10 9 10 8 7 7 8 7 2 4 4 6 2 5 4 8 17 20 18 14 17 24 23 17 15 16 17 18 18 21 25 28 29 28 27 24 23 22 20 19 19 19 19 19 20 20 19 18 17 16 14 13 13 12 11 10 9 8 7 6 6 5 3 2 2 1 1 0 2 3 4 3 3 3 3 3 3 2 1 2 3 3 4 4 5 7 8 9 10
3 6 7 6 7 8 9 10 10 11 11 8 6 7 8 3 6 6 2 5 3 4 8 15 21 21 18 16 18 21 22 19 17 14 13 17 19 21 24 29 30 29 26 25 25 23 20 20 19 19 18 19 20 22 20 18 17 16 13 13 13 11 10 8 7 6 7 8 7 6 5 3 2 2 2 2 4 4 3 2 2 3 4 4 3 3 3 4 5 5 5 5 6 8 9 9 10
5 6 6 7 8 7 7 9 11 11 9 6 5 6 2 5 5 6 7 4 5 12 16 19 19 18 20 19 18 16 17 18 19 18 17 21 24 25 26 27 28 29 28 27 27 24 22 21 19 19 18 17 18 21 20 19 17 14 12 12 12 10 9 7 7 8 10 10 8 7 5 4 3 3 3 3 4 4 3 2 3 3 4 4 4 4 4 5 5 6 7 7 7 9 9 9 10
8 7 6 8 10 10 8 8 10 9 7 6 4 2 2 7 4 6 9 7 10 16 17 18 18 19 21 18 16 16 17 19 23 24 21 21 26 31 31 26 27 31 31 30 29 27 25 22 21 20 18 15 16 19 21 19 16 14 11 10 10 9 8 6 9 11 10 9 8 6 5 4 3 3 2 2 2 2 2 2 3 4 4 4 5 5 4 4 4 5 6 7 8 8 8 9 9
11 9 7 6 8 11 12 11 13 9 6 6 6 4 4 10 8 6 8 8 10 16 17 18 17 17 16 16 16 16 15 17 20 22 18 16 22 28 30 29 29 29 32 33 31 30 28 25 22 21 17 15 16 20 21 18 16 14 11 10 8 7 7 7 11 11 8 7 6 5 4 4 3 2 2 1 1 1 1 1 3 4 4 4 4 5 4 4 4 5 6 6 7 6 7 8 8
10 11 9 8 8 9 11 13 15 13 7 5 7 4 8 11 10 8 6 8 9 14 16 15 16 14 13 12 14 14 14 15 18 20 19 19 20 22 26 30 30 29 31 32 32 32 30 26 24 21 17 16 18 21 21 17 17 16 14 14 11 9 10 11 13 11 8 8 7 6 6 6 6 5 5 4 3 2 1 2 2 3 4 4 4 4 4 5 5 5 5 5 5 6 7 8 8
5 9 10 11 11 8 9 13 14 10 6 7 9 7 9 3 5 5 2 7 9 12 13 12 15 13 12 11 10 12 14 17 21 21 20 20 21 21 24 27 29 30 30 31 33 32 31 28 26 24 20 19 21 21 20 19 19 18 16 16 13 12 15 15 13 10 9 9 7 8 9 9 8 8 8 6 4 3 2 2 2 2 3 3 4 5 4 5 5 5 5 4 5 6 7 8 8
5 7 9 12 13 11 9 12 11 6 5 10 12 8 4 6 3 10 8 7 8 12 12 11 14 11 10 10 8 8 11 17 22 22 20 21 23 23 25 27 28 30 30 31 32 32 31 29 28 27 23 22 22 22 21 20 20 19 17 16 14 15 16 14 12 10 11 9 7 8 9 9 9 9 10 7 4 3 2 1 0 0 1 2 4 4 4 4 4 4 4 4 5 7 8 8 8
8 7 7 11 12 12 12 14 11 7 6 10 11 5 5 5 6 12 9 7 7 12 12 9 11 9 8 8 7 7 10 17 19 19 21 23 26 28 28 28 28 28 28 29 30 31 31 29 28 26 23 23 24 23 22 21 20 19 17 16 15 15 15 14 12 10 11 9 8 8 8 8 9 9 10 8 5 2 1 1 1 2 1 2 2 3 4 4 3 3 3 4 6 7 8 8 8
9 8 6 7 7 10 13 13 10 8 6 8 9 3 2 2 6 9 7 9 11 12 11 8 8 7 7 7 7 8 10 14 16 19 23 25 27 29 28 27 27 27 27 28 30 30 29 28 27 25 23 23 23 21 21 21 19 18 17 16 15 14 14 13 10 9 10 9 8 9 8 8 9 9 8 9 7 3 0 1 1 2 1 2 1 3 4 3 3 3 4 5 6 7 8 8 9
7 7 5 5 5 7 10 11 10 7 6 8 9 5 3 3 4 7 7 9 12 13 11 9 8 7 7 7 8 8 9 12 16 21 24 26 27 26 25 26 27 28 29 29 29 28 27 26 26 24 22 21 20 18 19 20 18 18 17 15 14 13 13 11 9 9 9 8 8 9 10 9 9 8 7 9 9 5 2 2 3 3 3 2 1 1 2 2 2 3 5 6 6 7 7 7 8
4 6 6 6 6 5 6 10 11 8 4 8 10 4 4 5 5 6 7 8 11 14 12 10 10 9 9 7 7 8 6 9 15 19 22 24 25 24 25 28 28 29 31 30 27 26 26 26 25 23 21 19 18 17 18 19 18 17 15 13 13 12 12 11 9 9 8 8 9 9 10 9 10 10 10 10 10 7 5 5 5 5 4 3 3 2 2 2 3 4 5 6 7 8 8 8 8
4 6 7 7 7 5 4 8 11 11 6 4 6 6 4 5 7 7 7 8 11 14 12 12 11 10 9 7 7 7 7 8 10 13 17 18 19 21 25 27 28 30 31 29 26 26 26 24 23 21 20 18 18 18 19 18 17 16 14 13 12 12 11 11 10 10 9 9 9 9 10 12 14 14 14 12 11 9 8 8 7 6 4 4 4 4 5 5 5 5 5 6 7 8 9 9 9
6 5 6 6 7 6 4 5 7 10 10 4 4 6 6 7 10 9 8 9 11 14 13 12 11 8 8 7 7 7 8 8 6 8 10 10 12 16 20 24 26 28 29 28 26 26 25 23 21 20 19 17 18 19 19 17 17 16 15 14 13 13 12 12 12 12 12 12 12 13 13 15 15 15 14 12 11 10 8 7 7 6 5 5 5 5 6 6 6 5 5 6 7 8 9 11 12
6 5 4 4 5 7 7 5 5 8 9 6 6 6 7 10 10 9 8 8 10 13 13 11 10 9 8 7 7 7 7 6 5 7 8 9 11 14 17 19 22 24 25 25 24 24 23 20 19 19 18 18 19 20 19 17 17 16 16 15 15 15 14 14 16 17 18 17 16 16 15 14 13 12 11 10 9 8 7 6 6 5 5 5 5 5 6 6 6 6 6 5 6 7 9 11 12
5 5 4 5 5 6 7 5 6 8 7 6 8 8 10 12 10 10 9 7 8 11 11 10 9 9 8 7 7 7 7 5 6 10 10 11 12 14 16 17 18 20 21 22 21 22 21 19 19 19 18 18 19 20 19 18 18 18 18 17 18 18 18 19 20 20 20 18 17 15 14 13 11 10 10 8 7 6 4 4 4 5 4 5 5 5 6 7 6 7 7 5 6 6 9 12 13
4 5 4 7 6 5 6 5 7 8 6 4 8 11 13 12 10 11 10 8 9 12 11 10 9 9 8 9 8 8 7 6 9 13 13 15 16 16 17 17 18 18 18 19 19 20 20 19 19 19 19 18 19 20 19 19 20 20 20 21 23 23 22 22 21 20 20 18 16 14 13 11 10 10 9 7 5 4 3 2 2 4 3 3 3 4 5 6 6 6 6 6 7 7 10 14 15
7 5 4 6 6 5 6 5 6 7 5 2 9 13 12 11 9 9 9 10 11 12 13 12 13 11 9 10 11 9 8 7 10 12 15 18 17 17 18 18 20 19 18 18 18 19 19 18 19 19 18 18 19 19 19 20 20 21 23 25 25 24 23 22 21 19 18 17 14 12 11 10 9 9 8 7 5 4 4 4 3 4 3 3 3 4 4 5 6 6 6 6 6 8 11 15 17
8 6 4 5 5 4 4 4 5 4 4 3 10 13 9 8 9 9 9 9 9 9 10 11 14 13 11 11 12 11 11 9 8 10 13 17 18 18 18 18 19 20 18 17 17 18 18 18 18 18 18 18 19 18 19 19 19 21 24 26 25 23 22 21 20 18 16 15 13 11 10 9 8 8 8 6 6 6 5 5 5 4 4 4 3 4 5 6 7 8 8 7 6 7 11 15 18
7 5 4 5 4 6 4 4 1 3 4 7 10 10 7 6 8 9 8 7 7 7 6 7 10 11 11 12 11 13 14 11 9 10 11 16 18 17 17 17 17 19 18 17 16 17 16 17 17 17 17 17 17 17 17 18 19 23 24 24 23 22 21 19 18 16 14 14 13 12 11 10 9 9 8 7 6 6 6 5 6 6 6 5 4 5 7 8 9 9 10 8 7 9 12 15 17
8 7 6 4 4 7 6 4 4 6 5 11 13 6 2 6 9 9 6 7 8 8 8 7 7 7 8 9 10 11 12 10 10 11 10 13 17 16 16 17 17 19 18 17 16 16 16 17 17 17 17 16 16 16 17 19 23 25 25 24 22 21 20 18 17 16 14 15 14 14 13 11 10 10 9 8 7 7 6 7 8 8 8 7 6 8 9 10 10 11 11 10 11 11 12 14 15
8 8 8 7 6 6 6 8 7 5 3 7 11 5 3 3 8 9 7 8 8 9 10 10 8 8 8 9 9 10 11 10 11 12 11 12 15 17 18 18 18 18 17 16 17 16 16 16 17 17 17 16 16 17 19 23 27 28 27 26 24 21 19 17 17 17 15 16 15 15 13 11 10 10 10 9 8 8 8 9 9 9 10 10 9 9 10 11 11 12 12 12 13 12 12 16 17
6 5 8 9 7 5 7 9 7 4 5 8 7 5 3 3 3 7 9 10 9 9 11 11 10 9 9 9 9 10 10 10 10 12 12 12 15 18 19 19 19 18 17 17 17 17 16 17 17 17 17 16 17 19 22 25 27 27 27 26 24 22 19 17 17 16 15 16 16 15 13 11 10 10 10 10 9 8 9 10 10 11 11 11 10 10 12 13 15 16 16 17 19 18 18 22 21
7 4 8 9 9 6 6 6 5 3 4 8 6 3 3 3 5 8 9 10 10 11 11 12 12 10 10 10 10 10 11 10 10 11 12 12 15 18 19 19 20 20 19 18 18 18 18 18 18 18 18 17 18 20 22 25 26 25 24 23 22 21 20 20 18 16 16 16 16 14 13 12 10 9 9 9 9 8 9 10 11 12 12 13 13 15 18 19 20 20 21 22 23 23 23 23 21
6 4 6 7 8 8 6 5 4 3 4 6 4 3 3 2 5 7 6 7 10 12 14 15 14 13 11 11 12 11 10 10 10 11 12 13 15 19 20 20 20 21 21 20 20 20 20 20 20 19 18 18 18 20 22 24 24 24 24 23 22 21 21 21 19 17 17 16 16 15 14 13 11 10 9 9 9 9 9 11 11 12 13 15 17 19 20 20 20 20 20 21 22 23 22 21 21
5 5 5 4 6 6 6 6 4 4 5 7 9 8 4 1 4 8 8 9 11 13 13 13 13 13 12 12 12 11 10 9 8 9 11 14 17 20 22 21 21 22 22 22 23 22 22 21 21 20 18 17 17 19 21 22 22 22 23 23 23 23 22 22 20 19 18 17 17 16 15 15 13 12 10 10 10 10 11 12 13 14 14 16 17 18 18 18 19 19 19 20 21 22 21 21 22
4 5 6 5 4 1 4 4 3 5 4 8 14 13 6 3 6 7 10 13 16 14 12 11 12 12 13 12 11 12 10 9 8 9 10 15 19 22 23 22 22 23 23 24 24 24 23 23 22 21 19 17 17 18 21 21 21 21 21 21 22 23 22 21 21 20 19 19 19 18 17 15 14 13 11 12 12 13 14 15 16 16 16 16 17 17 17 17 18 19 19 20 20 21 20 21 23
5 5 5 4 4 2 1 0 3 5 5 7 13 12 6 5 6 10 13 13 16 18 15 17 17 15 14 12 11 12 11 10 9 9 10 14 17 20 23 22 22 24 23 24 26 25 24 24 23 23 20 18 19 20 21 21 20 20 19 18 19 19 19 19 20 20 19 20 20 18 17 16 15 14 14 14 15 15 16 17 17 17 17 17 17 17 17 16 17 18 18 19 19 20 20 20 22
7 6 4 4 2 1 2 3 3 5 5 6 11 11 6 4 7 16 19 13 15 19 18 20 21 18 16 13 12 12 11 11 10 9 10 11 12 17 21 21 21 22 23 25 26 26 25 24 23 23 20 19 19 20 21 20 19 18 17 17 18 18 18 18 20 20 20 20 19 17 16 16 16 15 15 16 16 16 17 17 18 18 18 18 17 17 17 17 18 19 19 19 19 20 20 21 23
10 8 5 6 4 3 4 4 1 3 4 5 11 12 6 4 4 15 22 19 20 21 17 17 19 19 18 14 13 12 12 13 10 9 10 10 12 17 20 22 21 21 23 25 25 25 25 23 22 22 20 19 19 20 20 19 18 18 17 17 18 18 19 19 20 20 20 19 17 16 15 15 16 16 16 16 16 17 18 18 18 18 18 17 17 17 18 18 19 19 20 20 20 19 19 20 22
10 7 5 5 5 5 5 4 3 4 3 2 8 8 4 3 3 11 21 17 14 14 9 9 11 13 14 12 12 13 13 13 11 10 10 11 16 19 21 22 21 22 24 24 25 25 24 23 22 22 21 19 19 19 19 19 18 17 17 17 18 19 19 20 20 20 20 18 16 15 15 15 16 16 15 16 15 16 17 17 17 17 17 17 17 17 17 18 18 19 20 21 20 19 18 20 20
7 5 5 4 5 5 3 4 6 6 3 2 5 3 2 3 4 3 11 9 7 10 8 10 11 11 12 12 11 13 13 12 12 11 10 12 17 20 21 20 21 23 24 24 25 25 25 24 23 22 21 20 18 18 18 17 17 16 16 18 19 19 20 22 21 19 18 17 14 13 15 16 16 16 16 15 15 16 16 17 17 17 17 17 17 17 17 18 18 19 19 19 19 18 18 19 20
4 5 6 6 6 6 3 3 2 4 6 3 2 2 1 1 6 4 9 11 9 10 10 11 13 13 14 13 12 13 13 12 12 12 11 12 16 20 21 20 22 24 24 25 25 25 26 25 24 23 21 19 18 17 17 17 17 16 16 17 19 20 21 22 20 18 17 16 14 14 16 17 16 16 17 16 16 16 16 17 17 18 17 17 18 17 17 18 18 18 19 18 18 17 18 19 19
5 6 7 4 3 3 4 3 1 3 5 4 1 6 4 1 2 1 7 10 10 11 11 12 13 15 15 13 13 14 13 13 12 12 12 13 16 21 22 21 23 25 25 26 26 26 26 25 24 23 21 20 19 17 17 17 17 17 17 17 18 20 21 20 19 19 18 16 16 16 18 18 17 17 17 16 16 16 15 15 16 17 18 18 18 18 18 18 18 18 18 18 18 16 17 18 18
5 5 7 6 5 3 1 4 3 2 4 2 0 4 4 3 5 6 9 12 12 12 12 14 15 17 16 13 14 14 13 12 12 12 12 12 16 21 22 22 23 25 27 28 27 27 26 25 23 22 20 19 18 17 17 17 17 17 17 17 18 20 20 19 19 19 18 17 18 19 19 18 17 17 16 15 14 14 14 14 15 16 17 18 18 18 18 18 17 17 16 17 16 15 16 17 17
4 3 6 5 4 5 3 3 4 4 4 2 1 1 3 4 8 13 15 15 16 15 14 15 17 18 16 14 14 14 14 12 12 12 11 12 16 21 23 24 25 26 27 28 28 28 27 25 23 21 20 18 17 17 17 17 16 17 17 18 18 19 19 19 19 19 18 19 19 19 18 18 17 16 14 13 13 12 12 13 14 15 16 16 17 17 17 17 17 16 15 15 15 14 15 16 16
5 3 4 4 3 3 2 2 3 4 4 4 4 2 5 5 7 16 19 18 18 19 18 16 17 18 16 15 14 14 14 13 13 13 12 12 17 21 22 24 25 26 27 28 29 28 27 26 24 22 21 19 18 17 16 17 17 17 18 19 19 20 20 19 19 19 20 20 19 19 18 18 17 15 13 12 11 10 10 10 12 13 14 15 16 16 16 16 16 16 15 14 13 13 14 14 14
6 5 4 5 5 4 3 2 2 3 4 5 6 4 6 5 7 14 16 17 18 19 19 17 17 19 17 14 15 15 14 14 13 13 12 12 17 21 22 24 26 26 26 27 28 28 28 27 25 24 22 20 20 19 17 17 17 17 18 19 20 20 20 20 20 20 21 20 19 19 18 17 17 14 12 10 10 9 8 9 10 12 14 14 15 15 16 15 16 15 14 13 12 12 12 12 12
Wind_Direction
323 329 341 342 338 346 343 67 43 329 43 348 301 310 277 184 318 320 314 317 97 320 309 57 91 116 117 119 138 115 55 111 168 140 186 165 139 151 157 151 148 144 143 142 144 146 144 141 139 138 135 132 131 132 133 133 131 125 118 113 110 109 108 106 106 104 101 100 99 101 101 102 102 103 104 105 107 108 108 106 107 102 94 88 83 74 66 67 62 60 65 73 91 106 111 115 120
325 338 347 348 360 24 326 59 71 337 23 332 302 273 271 15 2 331 309 339 111 162 113 93 91 92 103 110 114 83 36 26 73 108 114 126 127 139 149 149 148 145 143 143 146 145 145 143 140 138 134 133 134 134 135 134 129 123 119 115 113 110 109 109 108 106 103 102 102 102 104 106 106 106 107 109 110 110 108 107 106 100 94 89 84 75 68 71 67 64 64 75 99 114 118 121 122
333 346 349 354 16 42 26 43 71 33 27 291 289 261 288 350 291 297 303 125 135 143 120 104 94 86 96 81 50 83 86 56 93 100 115 132 127 135 146 146 146 145 144 145 146 145 144 143 141 138 133 135 136 136 135 131 127 122 120 117 116 112 110 111 110 109 106 106 105 105 106 107 108 108 109 110 112 114 114 111 106 101 95 89 81 76 74 74 67 65 68 82 107 119 121 123 123
341 347 346 2 25 28 53 40 107 130 191 259 282 276 290 293 252 262 254 149 156 149 127 119 79 8 77 101 94 99 119 120 125 124 128 145 141 143 145 144 145 143 144 147 146 143 141 142 143 139 135 137 137 136 133 129 125 123 122 119 117 113 113 113 111 111 108 107 106 107 107 108 109 110 111 112 114 115 116 112 107 103 97 93 89 89 86 80 72 67 74 93 114 124 124 124 123
347 350 346 36 74 30 75 57 85 117 230 242 282 286 281 277 277 282 251 180 193 182 143 140 105 13 63 110 142 122 130 132 143 136 123 137 143 143 142 142 143 142 145 147 146 142 139 141 141 140 138 138 137 135 131 129 126 124 123 120 119 116 115 113 113 113 111 111 109 110 110 109 108 110 114 114 116 114 114 113 112 111 111 106 98 96 91 84 77 71 83 103 121 128 128 127 124
352 359 7 74 101 146 96 73 288 265 241 216 265 281 281 287 293 295 293 288 263 227 128 124 118 103 64 14 50 127 143 132 140 137 126 136 143 142 140 141 142 143 146 145 144 140 138 142 141 141 141 139 137 133 131 130 128 127 124 122 120 118 117 116 117 117 116 116 114 113 112 111 107 110 113 115 121 124 124 123 121 119 121 113 105 106 96 86 78 73 86 109 127 133 133 131 128
359 4 12 56 27 88 95 183 217 247 247 199 240 280 285 290 288 295 302 297 7 360 5 110 119 104 85 52 43 107 134 131 136 138 136 141 142 139 141 143 142 142 143 142 140 138 139 142 141 142 141 138 135 133 133 131 131 130 126 123 121 120 120 120 122 122 122 120 116 114 113 111 107 109 111 118 125 131 136 133 138 139 131 118 122 123 103 90 81 74 85 108 128 137 139 136 133
8 16 330 75 38 18 99 202 219 219 256 240 252 275 279 284 287 300 298 235 203 220 134 146 125 99 22 51 66 102 115 128 134 136 137 138 139 141 146 145 141 139 140 139 136 137 139 141 141 141 140 136 135 134 133 133 133 131 127 125 125 125 125 126 128 127 125 119 116 113 111 109 107 111 115 129 130 136 147 145 148 154 150 133 134 130 109 94 83 77 81 99 121 137 142 141 139
29 119 335 79 113 13 110 244 262 233 263 274 271 272 274 281 290 299 293 268 194 166 164 172 127 106 126 71 94 93 105 125 131 133 135 135 140 145 147 146 142 139 138 136 136 137 138 139 139 139 138 136 135 135 134 134 133 132 130 130 131 132 132 132 131 127 122 118 116 112 110 108 109 115 118 127 131 147 164 167 155 156 159 143 137 134 117 101 87 79 80 87 107 133 144 145 144
39 200 212 91 120 134 277 270 264 257 260 264 269 270 273 282 292 290 285 276 187 156 155 130 74 111 125 99 96 109 123 129 130 132 135 136 142 146 145 144 143 141 138 136 135 135 133 135 137 137 138 136 136 137 137 136 135 135 135 136 137 137 135 133 129 125 121 118 115 110 112 111 112 114 112 112 108 120 144 162 161 158 152 142 140 139 127 113 98 87 81 82 91 122 144 149 148
40 284 135 121 119 168 229 251 252 264 266 275 277 270 273 283 289 278 279 273 170 149 139 99 89 116 105 91 74 129 135 132 133 134 136 138 141 145 142 141 143 142 139 135 133 131 131 134 136 138 139 138 139 140 140 140 140 141 142 142 140 137 135 132 130 126 122 116 108 106 109 108 100 89 82 87 87 83 93 114 138 148 145 142 142 140 135 126 112 99 90 86 85 105 135 152 153
98 263 92 128 182 185 206 219 247 262 274 290 279 272 280 287 289 273 277 260 153 143 147 138 132 125 95 83 101 133 139 137 136 135 136 138 139 141 140 140 142 140 136 134 133 134 135 138 140 141 142 143 143 142 143 143 144 147 146 143 138 137 136 134 131 125 118 108 99 99 99 94 84 72 63 69 73 67 72 88 104 129 142 143 141 141 141 136 121 108 101 92 87 94 112 139 153
154 185 107 156 204 176 189 202 250 267 282 279 264 273 291 296 281 261 268 203 151 156 168 158 144 126 98 111 130 142 144 139 136 135 136 136 136 137 138 139 138 135 133 134 135 138 141 142 143 145 147 147 145 145 146 147 149 149 145 140 139 139 138 135 129 119 110 101 96 95 94 90 82 73 67 71 72 67 69 79 92 109 129 137 140 143 144 141 127 112 107 98 91 89 96 113 132
180 184 132 189 226 169 179 193 248 250 264 260 263 277 288 293 276 266 254 128 158 178 137 137 136 107 108 134 133 160 147 135 134 134 133 132 133 133 134 134 133 133 133 135 137 140 144 145 146 148 149 149 148 148 149 151 151 147 143 142 142 141 137 131 123 114 108 103 99 96 97 94 86 78 74 75 73 70 68 71 84 99 115 129 138 143 146 145 131 116 109 102 96 93 93 100 108
182 187 124 168 215 184 204 193 210 225 248 254 264 281 291 283 274 288 219 126 21 136 112 126 150 96 153 171 156 175 146 134 133 131 129 126 128 127 128 129 129 132 134 136 138 143 146 147 151 151 152 152 151 151 150 152 151 147 144 145 143 139 135 128 121 117 114 111 103 100 101 94 88 83 81 80 76 71 67 67 74 86 102 117 133 143 148 147 136 126 113 104 100 97 100 104 106
176 155 120 172 201 201 225 205 201 230 251 252 262 283 295 285 270 307 276 133 106 135 113 152 228 131 172 175 152 155 139 132 131 127 123 119 118 118 120 123 126 131 133 138 140 145 148 151 154 155 158 157 155 152 151 151 149 148 146 147 145 141 136 129 128 127 125 119 107 100 100 95 88 83 81 81 80 75 70 68 70 80 91 105 123 138 147 150 141 132 118 109 99 90 98 115 115
150 156 196 196 202 207 209 204 198 212 243 258 271 281 276 287 304 16 11 74 112 135 61 71 341 81 149 140 135 138 130 130 126 121 118 114 114 112 113 118 123 127 132 140 145 150 153 155 157 159 161 159 157 153 153 150 148 152 151 152 150 145 139 137 138 136 133 126 113 101 95 93 87 81 76 73 78 78 75 72 71 77 84 96 113 132 145 151 147 147 143 136 73 36 29 160 141
175 169 202 204 199 203 192 200 203 196 234 256 265 267 258 279 291 169 58 57 87 84 44 59 56 67 104 115 122 123 122 124 119 116 114 115 117 114 116 121 124 127 134 144 151 158 158 158 160 160 162 162 159 156 154 151 153 158 157 159 153 144 141 142 144 136 131 122 112 100 91 90 85 77 68 61 63 68 72 75 77 79 83 90 100 115 129 140 147 160 196 273 284 302 332 303 232
194 170 192 209 197 205 204 204 215 211 229 255 263 270 269 260 244 193 118 130 109 89 57 72 83 84 97 101 99 100 108 112 112 116 120 127 128 126 128 128 128 133 142 152 160 166 164 162 164 163 163 165 165 161 160 158 160 164 164 162 148 141 140 141 143 136 131 120 104 91 83 85 79 68 60 59 54 53 54 61 72 81 86 87 90 93 93 94 89 43 1 345 326 312 323 327 299
200 179 202 219 199 214 224 219 231 234 239 257 270 291 292 257 241 227 138 154 126 120 129 108 106 100 95 88 84 83 81 86 106 119 126 129 129 132 134 132 136 144 153 161 163 167 168 167 169 171 170 170 171 168 167 165 164 169 168 158 147 147 146 141 142 140 136 123 105 99 94 104 107 78 62 62 46 38 34 36 44 52 66 70 74 79 78 70 45 20 4 357 352 339 329 328 321
203 199 207 206 190 213 224 223 233 243 248 253 282 317 296 274 356 354 132 133 126 137 127 118 123 116 109 102 101 99 92 88 97 108 117 119 123 129 133 140 147 154 159 161 161 165 170 172 174 176 179 180 179 175 171 169 168 172 168 155 150 153 155 149 148 152 151 135 125 129 130 130 127 106 74 333 314 345 3 2 1 360 358 3 15 32 50 32 14 5 360 355 347 337 330 329 329
236 226 206 192 186 207 221 223 230 239 249 266 295 295 284 322 28 344 88 132 203 147 112 122 129 127 123 118 115 113 113 115 109 112 128 133 131 130 140 150 152 154 156 158 161 166 173 176 176 178 183 185 185 181 174 171 170 170 164 156 155 158 162 156 150 163 165 151 145 152 156 158 160 185 231 270 296 314 335 335 335 337 338 341 346 354 357 357 358 359 356 352 345 337 333 336 340
237 243 206 201 198 205 219 220 229 232 238 258 263 253 242 78 42 4 54 89 143 125 121 123 122 118 114 110 113 118 123 127 129 146 166 157 143 142 155 158 153 153 156 162 165 168 177 178 179 184 185 185 185 182 177 174 171 165 158 157 159 159 161 156 144 149 152 151 159 169 170 180 206 224 240 271 295 307 311 317 344 347 345 346 351 352 349 351 357 3 2 357 351 341 337 341 347
227 242 223 217 212 219 227 229 236 220 209 228 238 263 92 102 83 40 53 63 105 111 111 111 112 116 115 115 123 131 137 140 147 161 175 164 150 152 160 159 155 157 160 167 170 171 177 179 181 185 185 185 183 180 176 174 169 164 163 164 162 163 169 164 149 147 150 156 168 179 180 194 219 229 250 287 296 306 298 304 2 2 357 353 357 357 354 354 358 4 2 359 356 346 342 340 339
228 231 228 228 221 225 228 239 248 233 221 230 254 292 89 109 99 66 60 71 97 106 108 111 116 118 118 124 132 139 141 138 143 156 168 163 155 154 156 158 159 162 165 168 171 173 175 175 179 183 183 180 176 174 173 171 171 173 181 184 185 196 201 182 162 161 166 167 171 185 191 186 175 143 98 52 69 52 10 358 20 18 6 355 0 4 2 356 350 357 358 358 356 345 339 335 332
225 221 226 231 230 226 220 232 242 242 238 199 241 253 130 123 94 62 60 96 105 104 110 117 117 116 118 128 139 143 141 137 143 153 160 158 157 156 156 160 161 165 170 168 168 171 171 170 175 180 180 176 172 171 174 176 184 191 198 198 201 206 195 176 171 176 183 180 182 191 187 166 143 117 90 69 62 62 30 348 16 24 10 5 11 7 353 339 336 345 345 345 343 329 324 324 326
222 214 226 234 235 235 216 226 233 232 227 188 210 189 148 168 84 93 119 113 114 108 111 119 118 120 129 138 147 145 141 144 149 152 153 155 159 160 161 163 163 166 170 169 168 168 168 171 178 182 183 183 180 178 182 187 190 190 188 190 189 181 173 171 177 187 189 189 197 196 185 166 145 123 103 82 64 51 8 337 5 14 14 10 4 360 346 332 335 341 332 328 330 325 323 321 323
242 217 225 236 238 244 229 234 232 190 206 204 193 160 103 332 78 138 154 126 121 116 113 121 122 125 136 144 147 137 137 145 150 152 154 159 162 164 165 167 167 169 172 171 169 168 171 176 181 184 186 190 189 186 188 187 184 179 175 178 179 171 171 177 188 195 191 192 201 193 182 166 147 129 114 103 90 60 14 333 322 67 55 5 348 341 326 315 322 331 326 323 323 321 322 318 316
244 228 226 238 238 244 235 238 231 165 193 199 169 125 19 358 114 136 140 124 116 113 115 122 126 132 141 147 143 137 142 148 153 156 158 161 164 167 167 170 170 170 173 173 172 172 175 176 176 176 179 183 182 181 182 180 178 176 172 176 176 171 176 188 194 196 195 194 190 180 174 156 139 134 125 118 113 72 340 263 182 165 113 5 329 295 294 302 306 316 326 327 321 320 323 324 322
240 227 219 239 240 242 231 232 225 180 197 184 162 183 338 38 124 132 128 127 121 114 119 124 126 136 148 152 143 143 149 153 158 159 161 164 168 169 168 171 171 168 169 172 173 172 173 172 171 171 172 173 173 176 178 179 180 178 176 177 177 176 181 191 196 199 197 191 178 170 170 152 134 136 134 125 115 92 332 157 142 146 88 38 335 284 293 311 311 320 331 328 328 334 337 343 341
243 224 218 213 215 242 231 226 217 195 211 175 166 200 187 173 155 138 133 138 131 124 128 132 135 141 150 152 143 146 155 161 164 163 165 167 168 170 169 171 170 168 168 170 171 170 170 171 171 172 172 172 172 176 178 180 182 181 181 180 180 182 185 190 195 194 188 181 173 163 159 148 131 124 111 103 103 108 133 126 136 136 106 73 32 321 305 318 333 346 343 337 340 345 346 350 349
242 213 224 207 204 253 240 223 207 193 211 170 165 173 160 176 180 150 142 153 134 126 136 140 143 148 150 150 146 147 156 164 164 164 166 168 170 173 173 171 170 170 170 170 170 170 170 170 172 173 173 172 171 175 178 180 180 179 179 176 174 179 183 185 181 177 171 166 167 159 148 134 119 114 104 101 110 126 129 115 111 111 101 75 59 42 11 11 16 13 10 1 359 0 354 347 342
247 207 217 207 201 223 238 231 208 185 183 185 166 149 149 165 174 162 149 160 140 129 142 148 150 156 153 154 154 151 159 167 164 161 164 169 175 177 174 171 171 172 171 170 169 169 169 167 171 173 173 172 171 173 175 175 175 173 174 169 167 169 170 167 163 163 157 151 149 141 127 114 109 113 116 116 121 123 116 107 98 92 83 61 53 41 32 30 21 21 27 22 20 16 3 348 338
245 221 208 207 190 180 205 242 213 176 175 189 120 135 162 155 160 161 154 161 145 137 149 155 155 158 159 159 157 161 167 166 156 149 153 162 170 172 172 170 169 170 170 171 169 169 169 167 170 172 171 172 172 172 169 166 166 166 166 162 160 159 153 146 143 140 133 128 124 117 111 108 111 117 119 120 118 112 106 100 91 81 66 53 44 34 32 26 21 21 24 32 32 20 8 355 341
215 211 188 190 175 174 191 215 198 165 174 172 107 120 153 141 150 153 155 166 149 146 151 153 159 160 164 162 158 166 165 155 135 127 130 137 148 157 161 160 161 163 165 167 166 168 169 167 170 172 171 171 170 169 164 160 159 158 156 153 151 147 138 130 126 123 120 119 117 113 112 111 114 118 118 120 118 110 100 84 72 59 43 33 23 18 16 9 10 12 11 21 24 17 7 354 343
189 190 175 176 173 192 196 201 192 156 161 172 130 139 152 146 158 154 157 168 147 145 147 150 162 163 163 160 159 162 158 147 125 120 118 120 127 138 144 144 146 151 158 163 163 166 169 168 168 170 170 170 166 164 161 158 155 151 149 144 138 133 128 125 122 120 120 120 120 119 120 116 113 112 109 112 113 110 100 71 53 44 17 348 349 3 12 6 358 360 2 0 357 356 352 347 343
229 190 191 189 177 200 199 204 206 151 141 187 142 147 157 152 158 156 155 158 149 151 153 158 164 164 164 158 158 159 155 140 125 120 112 110 119 133 141 141 141 145 153 160 160 163 169 170 169 168 167 168 166 163 161 158 153 148 144 136 129 124 125 124 121 121 120 120 122 121 120 115 112 108 101 100 101 103 105 97 69 59 31 351 10 26 25 13 359 357 2 4 358 357 1 358 350
261 227 215 206 187 204 201 199 217 165 130 145 135 142 155 149 148 156 152 153 162 163 159 165 168 166 165 157 159 157 147 138 130 120 111 114 128 143 147 146 146 147 151 158 160 161 166 170 171 169 166 166 166 164 161 158 155 151 142 134 127 123 124 125 123 121 121 120 118 116 114 112 113 107 101 102 100 94 90 89 76 69 70 64 68 57 38 25 15 8 3 11 21 25 27 19 8
256 240 212 220 201 200 219 209 210 162 117 134 142 140 147 143 141 153 157 155 166 170 165 169 168 167 166 163 163 157 150 148 141 125 122 131 140 148 150 148 150 149 151 157 158 160 164 167 171 169 165 164 164 162 161 158 154 149 140 133 129 126 125 127 125 123 124 120 113 110 109 106 106 101 99 98 95 89 79 77 76 80 85 79 81 66 49 39 30 26 22 27 45 51 46 35 29
245 230 197 234 205 174 214 226 181 74 100 139 135 126 130 130 135 154 161 153 150 162 175 173 171 171 168 166 163 159 158 155 142 133 139 146 147 149 148 148 148 146 148 153 156 161 164 167 169 167 164 165 163 164 166 161 150 143 137 134 135 132 128 129 127 123 125 121 110 104 99 97 98 96 96 92 88 87 84 90 93 95 95 87 82 70 59 52 43 39 37 43 59 62 56 46 44
238 223 194 223 211 184 190 161 93 47 80 125 119 104 149 144 144 155 151 142 146 157 170 174 179 170 157 159 162 163 163 157 146 146 154 152 149 149 146 148 149 144 147 153 159 166 166 167 168 167 166 166 165 164 163 157 147 140 136 134 135 132 130 132 129 123 120 116 107 100 97 96 97 96 96 91 88 92 95 103 106 104 100 90 82 77 70 59 50 48 49 58 67 66 63 57 53
243 229 198 209 219 193 161 125 104 73 105 145 127 119 248 175 147 151 145 145 150 158 171 178 178 166 159 162 164 167 168 164 156 155 158 152 146 145 144 150 153 148 152 157 162 170 169 166 166 166 165 164 164 161 155 152 150 146 142 140 139 137 133 132 131 125 118 113 108 107 104 99 97 96 96 93 92 98 102 105 106 103 95 88 85 78 68 57 54 59 61 67 69 66 70 65 58
241 211 177 207 223 176 143 127 122 130 176 199 183 158 202 233 191 173 155 150 155 162 174 182 181 175 172 171 170 173 174 170 162 158 158 152 146 143 145 153 156 155 155 157 163 172 172 166 162 162 159 157 159 158 155 155 153 150 148 149 149 145 137 130 130 125 118 116 114 112 106 99 97 96 94 92 94 100 103 104 102 98 91 84 79 70 66 66 69 72 70 71 72 70 72 68 60
233 189 157 203 220 191 170 151 149 148 158 191 204 132 139 202 208 187 161 146 156 172 180 186 188 184 179 177 179 180 178 174 166 162 160 155 150 148 149 154 157 157 155 157 166 169 166 160 155 154 151 151 153 155 160 160 157 153 152 152 150 147 142 134 131 127 123 121 115 109 103 100 99 95 91 88 92 98 101 105 101 97 90 80 75 74 76 77 77 76 73 73 73 69 68 68 62
233 202 174 205 213 198 185 180 184 134 130 186 205 110 118 197 181 173 176 162 167 185 191 191 190 187 184 180 182 183 178 176 169 161 158 155 153 153 154 154 155 156 156 161 165 159 155 152 150 150 150 154 156 158 162 162 160 159 157 153 147 145 143 138 135 130 126 123 115 108 104 101 98 94 90 86 91 96 99 105 105 101 93 84 82 81 80 79 77 74 72 72 72 69 68 68 64
243 225 221 228 218 193 171 187 189 135 146 198 203 175 136 217 189 166 178 187 187 196 196 194 191 186 186 182 180 179 172 172 168 155 151 155 156 155 155 153 152 154 158 160 158 152 149 148 148 148 145 150 158 163 166 164 163 162 159 154 147 144 142 139 135 130 126 123 116 110 103 98 94 91 90 88 92 99 102 106 107 103 98 93 89 85 83 82 79 76 73 74 74 72 71 69 69
264 246 235 252 263 172 149 182 133 126 195 214 202 192 148 154 206 178 182 194 190 189 190 190 192 189 187 184 179 173 168 170 161 148 148 151 152 151 151 151 150 153 158 156 152 149 148 146 145 141 138 143 150 158 163 163 164 163 160 156 150 147 145 141 136 132 129 124 116 110 103 96 93 91 94 96 98 104 106 106 105 102 100 98 94 90 88 86 84 81 77 76 75 73 72 71 72
250 247 207 229 291 19 81 267 107 151 225 225 201 200 178 169 200 195 201 205 187 183 186 186 188 189 186 183 176 170 166 165 156 150 151 147 146 147 147 148 149 152 155 153 150 149 147 146 145 139 136 140 144 151 156 157 159 159 157 155 150 149 149 145 140 134 131 125 118 112 105 98 94 95 100 102 103 108 107 106 105 100 97 96 95 94 90 87 87 84 79 76 75 74 72 70 70
227 243 181 167 220 202 195 221 200 192 231 229 183 181 216 225 200 197 200 203 191 191 191 185 182 181 180 180 174 167 162 162 158 154 154 150 147 148 147 148 149 150 153 153 151 150 148 147 147 142 138 139 141 145 148 150 153 153 152 151 149 149 149 146 140 133 131 128 123 118 111 104 100 100 104 105 106 108 107 106 104 98 95 94 96 96 90 88 87 83 79 76 75 76 72 70 70
209 223 178 163 174 170 206 219 208 193 236 236 168 163 212 256 211 199 196 198 197 194 192 186 181 176 175 175 168 161 159 161 160 157 158 156 153 152 149 149 150 151 154 153 150 150 149 148 148 144 140 142 144 143 144 146 147 150 153 152 151 150 146 143 139 135 133 131 126 120 116 112 108 105 108 109 108 108 106 104 103 99 96 94 96 96 91 89 88 83 80 77 76 77 75 74 76
210 209 145 159 174 161 203 204 164 186 229 241 158 157 195 205 244 211 197 199 191 179 173 165 169 171 167 166 163 158 159 162 162 160 161 159 157 154 150 150 152 154 154 152 150 150 149 147 149 146 142 145 147 146 147 147 145 148 151 150 151 150 145 141 139 137 136 133 127 121 118 118 113 109 111 113 112 110 106 104 103 100 97 94 95 95 91 89 87 84 82 79 78 78 76 78 82
212 180 139 191 187 157 191 192 176 174 153 140 158 159 201 191 307 253 174 161 143 148 142 139 152 162 162 166 166 161 161 165 164 161 160 161 160 154 149 150 155 156 155 153 151 151 149 147 147 146 144 147 149 149 149 148 145 146 147 147 148 147 145 143 139 136 135 133 127 124 123 120 116 112 111 113 113 112 108 106 103 100 98 96 94 93 90 87 86 85 83 81 81 79 76 79 82
187 172 193 217 175 141 137 187 207 108 129 195 165 111 275 279 341 0 127 129 137 149 147 149 156 161 167 173 170 165 166 168 165 162 160 160 160 155 151 154 157 156 156 154 153 153 151 149 147 144 143 146 149 151 150 149 148 146 145 146 145 144 144 143 141 137 133 130 125 125 127 123 118 116 115 114 114 114 112 109 105 102 100 98 95 93 89 86 84 83 81 79 80 80 78 78 77
165 192 205 207 174 146 104 150 284 71 143 236 154 149 184 175 339 1 120 135 156 158 153 154 157 165 174 177 170 168 168 166 163 159 157 159 161 156 152 156 160 158 156 153 153 154 154 154 151 147 145 146 149 151 151 152 151 148 145 144 144 144 142 141 141 138 134 129 124 125 126 124 122 123 122 118 117 116 114 112 108 104 101 98 96 94 90 87 85 83 80 78 78 81 82 79 73
178 187 180 167 180 213 146 157 185 136 160 233 110 174 193 165 169 167 154 164 171 165 160 161 167 174 178 176 171 166 162 162 161 157 158 162 163 157 153 157 160 157 155 153 153 154 155 157 156 153 151 150 151 152 153 154 153 149 145 145 145 144 142 140 140 138 135 131 127 127 127 127 128 128 125 121 117 115 115 115 112 109 105 100 97 95 93 90 87 85 81 78 81 83 82 79 72
202 157 169 173 164 180 187 166 159 158 175 176 121 248 255 213 180 169 174 181 174 168 171 172 176 180 178 173 169 164 162 164 163 162 163 163 162 157 154 158 160 157 154 153 154 155 156 157 158 157 155 154 155 156 155 155 155 151 147 146 148 147 144 142 140 139 136 133 133 134 133 132 132 129 126 123 118 116 116 116 115 114 110 104 100 98 97 94 91 88 84 83 88 88 82 79 72
195 165 185 195 171 161 166 170 152 137 154 162 142 214 263 244 186 174 179 181 176 176 177 177 179 180 179 173 167 166 166 165 164 163 162 162 160 156 155 159 159 157 155 154 155 156 156 158 159 159 158 157 158 159 157 156 154 153 151 150 150 149 146 143 142 141 138 136 137 137 135 134 131 128 128 125 119 117 117 118 119 119 118 112 105 102 101 98 95 92 86 86 91 90 84 80 71
169 168 198 186 169 145 131 215 250 117 143 169 150 190 258 247 188 182 180 179 182 181 176 175 179 178 176 173 168 168 167 164 164 161 159 162 159 155 157 159 158 157 155 155 155 155 156 159 161 161 161 161 162 161 159 159 157 155 154 154 153 150 147 146 145 143 140 139 139 137 137 136 130 127 127 123 118 118 118 122 125 125 126 122 112 107 107 102 97 94 91 90 93 91 87 80 69
Height
783 782 779 779 776 775 778 779 797 803 803 816 812 810 804 791 788 787 788 783 785 783 771 769 768 770 775 782 787 786 789 792 795 806 809 800 797 799 799 801 803 805 807 810 812 815 816 817 818 818 819 820 821 821 822 823 824 824 824 825 825 826 826 827 828 829 830 831 831 831 831 831 831 831 831 831 831 832 832 832 832 832 832 832 831 831 831 830 829 828 828 827 826 826 826 826 827
782 780 777 778 774 778 784 784 808 817 815 824 813 808 801 790 790 790 789 786 786 780 771 771 770 772 772 775 777 781 790 791 788 793 797 796 798 801 801 802 803 805 807 810 812 814 816 817 818 819 820 820 821 822 823 823 824 824 825 825 826 827 827 828 828 830 831 831 832 832 832 831 832 831 831 832 832 832 833 833 833 833 832 832 832 832 832 831 830 829 829 828 827 827 827 827 827
781 779 777 778 775 779 787 791 813 824 827 831 816 802 794 795 795 788 784 782 780 774 772 772 772 775 775 780 779 785 796 793 789 791 795 797 797 801 803 802 804 806 807 810 812 813 815 817 819 819 820 821 821 822 823 824 824 825 825 825 826 827 828 828 829 830 831 832 832 832 832 832 832 832 832 832 833 833 833 834 833 833 833 833 833 833 832 832 831 830 829 829 828 828 828 828 828
780 779 779 779 781 787 795 805 815 823 830 828 817 801 791 795 791 784 779 778 776 770 772 773 777 775 775 786 783 786 795 793 790 789 793 796 796 800 802 803 806 806 808 810 812 813 815 817 819 820 820 821 821 822 823 824 825 825 826 826 827 827 828 829 829 830 831 832 833 833 833 833 833 833 833 833 834 834 834 834 834 834 834 834 834 833 833 832 832 831 830 830 829 829 829 829 829
781 781 781 780 789 796 802 813 816 821 824 818 814 799 789 788 783 781 775 773 773 770 770 772 781 777 775 782 780 785 790 790 791 787 789 795 797 799 802 804 806 807 809 810 812 813 815 817 819 820 821 821 822 822 823 825 826 826 827 827 827 828 829 829 830 831 832 833 833 834 833 833 833 833 834 834 834 834 835 835 835 835 834 835 834 834 834 833 832 832 831 830 831 830 830 830 830
780 781 781 780 789 794 806 818 818 820 813 808 809 796 786 782 778 779 775 772 771 770 769 770 777 779 782 780 775 780 781 783 787 786 786 793 798 800 803 805 807 808 809 811 812 813 815 818 819 821 821 822 822 823 824 825 827 827 828 827 828 829 829 830 831 831 832 833 833 834 834 834 834 834 835 835 835 835 835 835 835 835 835 835 835 835 834 834 833 833 832 831 831 831 831 831 831
782 785 785 787 792 796 813 821 817 818 805 800 802 791 783 778 774 776 777 777 775 773 770 771 770 779 790 782 780 780 776 779 782 784 784 790 797 800 803 805 807 809 811 812 813 814 816 818 820 821 822 823 823 824 825 826 828 828 828 828 829 830 830 831 831 832 833 833 834 834 835 835 835 835 835 835 835 835 836 836 836 836 836 836 835 836 835 835 834 834 833 832 832 832 832 832 832
783 789 790 796 804 806 817 819 815 814 802 794 793 787 781 775 773 775 778 779 778 775 773 772 766 781 793 784 789 786 779 782 780 784 784 789 796 799 803 805 807 810 812 813 814 816 817 820 821 822 823 824 824 825 827 827 829 829 829 829 830 831 831 831 832 833 833 834 834 835 835 835 835 835 835 835 835 835 835 836 836 836 836 836 836 836 836 835 835 834 834 833 833 832 832 832 832
784 791 794 800 810 813 817 818 814 810 801 794 790 785 778 773 773 776 777 775 774 774 774 772 766 781 792 788 793 787 782 785 783 786 786 790 795 798 803 805 808 810 813 815 816 818 819 821 822 824 825 825 826 827 828 829 830 830 830 830 831 831 831 832 833 833 834 835 835 836 836 836 836 835 836 835 835 835 835 835 836 836 836 836 836 836 836 836 836 835 835 834 834 833 833 833 833
787 792 797 804 812 818 821 818 813 807 799 792 788 782 776 773 774 775 775 772 771 775 774 769 771 782 790 794 795 788 786 786 786 790 789 791 795 798 803 806 809 810 814 816 818 820 822 824 824 826 826 827 827 828 829 830 831 831 831 831 831 832 832 833 833 834 835 835 836 836 836 836 836 836 836 835 835 835 835 835 835 836 836 837 837 837 837 837 836 836 836 835 835 834 834 834 834
794 794 795 807 816 822 822 817 811 805 797 790 786 777 773 773 774 774 770 769 768 773 773 771 780 785 789 796 795 789 787 786 788 792 792 793 796 800 803 808 811 813 815 817 820 822 824 826 827 827 828 828 829 829 830 831 831 832 832 832 832 832 833 833 834 835 835 836 836 837 837 837 837 836 836 836 836 835 835 835 835 836 836 837 837 837 837 837 837 837 837 836 836 836 835 835 835
798 798 798 811 817 816 815 814 810 804 798 794 789 775 769 771 774 774 768 769 769 774 774 771 779 782 792 800 795 791 788 789 790 792 794 794 797 801 805 810 813 816 818 820 822 824 826 827 828 829 829 830 830 830 831 831 832 832 833 833 833 833 833 834 835 836 836 837 837 837 837 837 837 837 837 836 836 836 836 836 836 836 836 837 837 837 838 838 838 838 838 837 837 837 836 836 836
797 799 802 811 810 809 810 812 807 805 802 795 786 773 768 772 773 770 764 767 771 776 772 767 771 776 792 799 794 792 790 791 792 794 795 795 799 803 807 811 815 819 820 822 824 826 828 829 829 830 830 831 831 832 832 832 833 834 834 834 834 834 834 835 836 836 837 837 837 837 838 838 838 838 838 837 837 836 836 836 836 836 837 837 837 838 838 839 839 838 838 838 838 838 837 837 837
793 794 800 808 806 805 807 809 806 807 805 791 781 771 769 771 768 763 762 768 771 770 765 762 765 776 793 798 797 795 792 793 794 796 796 798 801 804 810 813 817 821 823 824 826 828 828 830 830 831 831 832 832 832 833 834 834 835 835 835 835 835 836 836 837 837 837 837 838 838 838 838 839 839 839 838 838 837 837 837 836 837 837 837 838 838 839 839 839 839 839 839 838 838 838 838 837
789 790 796 805 805 804 804 805 804 806 802 787 777 770 770 768 761 761 760 766 771 763 760 765 764 774 788 791 795 792 791 794 795 797 798 801 804 807 812 815 819 822 824 826 827 829 829 830 831 831 832 832 832 833 834 834 835 836 836 837 836 837 837 837 838 838 838 838 838 838 839 839 839 839 839 839 839 838 838 838 837 837 837 837 838 839 839 840 840 839 839 839 839 839 839 838 838
784 788 797 804 805 807 803 800 801 804 797 782 773 770 774 766 758 763 756 756 768 764 762 769 765 767 777 778 781 783 789 794 796 799 801 804 807 810 814 817 821 823 825 826 828 829 829 831 831 832 832 832 833 833 835 835 836 837 837 838 837 837 837 838 838 838 838 839 839 839 839 839 840 840 840 840 840 840 839 839 839 838 838 838 839 839 840 840 840 840 840 840 840 839 839 839 838
782 790 801 806 806 806 801 797 798 799 790 779 773 770 776 770 759 760 754 753 766 768 766 769 765 763 771 775 778 783 790 794 797 801 803 807 810 812 816 818 821 823 825 826 828 829 829 830 831 832 833 833 834 834 836 836 838 838 838 838 838 838 838 839 839 839 839 839 840 840 840 840 840 841 841 841 841 841 841 840 840 839 839 839 839 840 840 840 840 840 840 840 840 840 840 839 839
785 793 802 806 804 799 792 789 788 787 784 779 773 769 774 773 764 759 759 766 768 771 772 770 769 768 772 778 783 788 794 798 800 803 807 810 811 813 816 818 820 822 825 826 827 828 828 830 831 832 833 834 835 835 836 837 838 838 838 838 838 838 838 839 839 839 840 840 840 841 841 841 841 841 841 841 841 842 842 842 841 841 840 840 840 840 840 840 840 840 840 840 840 840 840 839 839
785 790 797 800 796 788 781 780 780 779 781 777 771 769 771 770 764 757 764 776 773 776 781 777 777 778 780 785 792 798 802 805 806 806 809 809 809 810 812 815 817 820 823 824 826 827 828 829 830 831 832 834 834 834 835 836 837 837 837 837 837 838 838 839 839 840 840 840 841 841 842 842 842 842 842 842 842 842 842 842 842 842 842 841 841 841 840 840 840 840 840 840 840 840 840 840 840
781 784 793 792 785 782 777 776 776 774 775 775 773 769 770 766 759 756 764 776 776 778 782 781 785 788 790 793 797 801 806 811 810 809 809 809 809 808 809 810 812 815 818 821 823 826 827 828 829 830 831 832 832 832 833 834 835 836 836 837 837 838 838 839 839 840 840 840 841 841 842 842 842 842 842 842 842 843 842 843 843 843 843 842 842 841 841 840 840 840 839 839 839 839 839 839 839
778 779 786 783 778 780 776 773 772 770 771 773 774 772 771 764 760 761 764 775 780 779 777 779 785 787 790 793 794 796 801 808 811 813 813 813 813 811 809 806 806 809 813 818 822 825 827 827 828 828 829 830 830 831 832 834 835 836 836 836 837 837 838 838 839 839 839 840 840 841 842 842 842 842 842 842 843 843 843 843 843 843 843 843 842 842 841 841 840 840 839 839 839 839 839 839 838
777 774 775 774 774 778 772 769 769 768 769 772 774 774 770 765 767 769 766 773 777 775 774 774 776 779 784 787 791 793 795 801 808 816 819 816 813 812 808 804 803 807 813 818 821 824 826 827 828 828 829 829 830 831 832 834 835 836 836 837 837 837 838 838 839 839 839 840 840 840 841 842 842 843 843 843 843 843 843 843 843 843 843 843 843 842 842 841 841 840 839 839 838 838 838 838 837
777 774 770 770 770 772 769 766 766 766 769 773 773 768 766 769 775 772 769 773 771 767 768 770 774 778 782 786 792 795 795 798 802 810 815 812 808 807 806 804 804 807 813 817 819 822 824 827 828 829 830 830 830 831 833 835 835 836 837 837 837 837 838 838 839 839 840 840 840 841 841 842 842 843 843 843 843 843 843 843 843 844 843 843 843 843 842 842 841 840 839 839 838 838 838 837 837
776 775 769 767 767 767 765 763 763 764 768 769 766 764 766 772 776 774 775 776 771 768 769 772 777 779 781 785 790 793 794 794 797 804 809 808 804 801 803 805 805 806 810 814 816 818 822 826 828 830 830 830 830 831 833 835 835 836 837 837 837 838 838 839 839 839 840 841 841 841 841 841 841 842 842 843 843 842 843 843 843 844 843 843 843 843 842 842 841 840 839 838 838 838 837 837 836
773 772 768 765 765 764 762 762 761 763 765 764 764 767 771 772 773 779 781 780 775 772 773 775 778 781 782 785 788 791 793 795 798 802 807 808 806 802 802 804 805 806 808 810 813 816 820 824 827 829 829 830 831 832 833 834 835 836 836 837 837 838 838 839 840 840 840 841 841 841 840 840 839 840 841 842 842 842 843 843 843 844 843 843 843 843 842 842 841 840 839 838 838 838 837 837 836
767 767 767 764 763 761 760 761 760 761 762 764 767 772 775 769 770 784 785 781 779 776 777 779 780 784 787 788 790 791 792 795 798 802 804 806 807 806 804 804 804 807 808 809 811 814 817 821 824 826 828 829 831 832 833 834 835 836 836 837 837 837 838 839 839 840 840 840 840 840 839 838 837 837 839 840 841 842 842 843 843 844 843 843 843 843 843 842 841 840 839 838 838 837 837 836 835
761 763 765 763 762 759 758 760 757 759 761 762 767 774 776 766 770 789 789 780 781 781 783 783 783 787 790 791 791 790 790 793 797 800 803 804 805 805 804 805 805 806 809 809 810 813 816 819 821 824 827 829 830 832 833 834 835 836 836 836 836 836 837 838 839 839 840 840 840 840 839 837 836 835 836 838 840 841 842 843 843 844 844 843 843 843 843 842 841 840 839 838 837 836 836 835 835
760 762 765 762 761 759 757 758 756 759 761 759 762 771 776 771 775 788 786 782 784 785 787 787 786 789 791 793 794 793 792 795 797 798 800 802 802 803 804 804 805 806 808 809 810 813 815 817 820 822 825 827 829 832 833 834 835 836 836 835 836 835 836 837 838 839 839 840 840 840 839 838 836 835 833 835 838 840 842 843 843 844 844 844 843 843 842 841 840 840 839 838 837 836 835 835 834
760 761 768 765 762 762 757 755 754 757 758 754 757 773 785 784 783 785 783 785 786 787 791 791 790 791 793 795 795 795 794 796 797 798 799 801 802 803 804 805 805 807 809 811 812 814 815 817 819 821 824 826 828 830 832 834 835 835 835 835 836 835 835 836 837 838 839 840 839 839 839 837 835 834 833 833 835 839 841 843 843 844 844 844 843 843 842 841 840 839 838 837 836 835 835 834 833
760 760 766 768 769 766 756 752 753 755 755 749 756 780 799 795 787 786 785 786 788 791 794 794 794 794 795 796 795 795 795 795 796 797 799 801 803 803 804 806 807 809 811 813 813 814 816 817 819 821 823 825 827 829 831 833 834 834 835 835 836 835 835 836 836 838 839 839 839 839 838 836 832 832 833 832 833 838 841 842 843 843 843 843 842 842 841 840 839 839 837 836 836 835 834 833 832
761 762 765 768 775 768 753 750 753 757 753 746 755 781 802 798 790 788 787 788 789 793 796 796 796 796 797 797 795 796 795 796 795 796 799 800 802 804 805 806 808 809 810 812 813 814 816 817 818 820 822 824 826 828 830 832 833 834 834 835 835 835 835 835 836 837 838 839 840 839 838 835 832 831 833 832 832 837 840 842 842 843 842 842 842 841 841 840 839 838 837 836 835 834 834 833 832
762 768 772 768 772 767 753 747 750 755 754 748 755 780 800 797 792 790 788 791 790 793 797 797 797 797 797 797 796 798 798 798 797 798 800 801 802 803 804 806 807 809 809 811 813 814 816 817 818 820 822 824 825 827 829 831 832 833 834 835 835 835 835 835 836 837 838 839 839 839 838 836 833 832 833 833 834 837 840 841 842 842 842 842 842 841 841 840 839 838 837 836 835 834 833 832 831
765 767 772 767 768 768 758 748 744 748 753 753 757 781 800 794 791 790 788 792 790 792 797 796 798 797 796 797 797 799 800 800 800 800 801 802 803 804 804 805 807 808 809 811 812 813 815 816 818 820 821 823 825 827 828 830 832 833 834 835 835 835 835 836 836 837 838 839 839 838 838 836 835 834 834 835 836 839 840 841 841 841 841 841 841 841 840 839 838 837 836 836 835 834 833 832 831
772 766 767 763 762 766 762 752 745 743 750 756 762 778 791 786 787 790 789 790 790 792 796 796 797 796 796 797 798 800 800 800 800 801 802 802 804 804 805 806 807 808 810 811 812 813 815 816 818 820 822 823 824 826 828 830 832 832 833 834 835 835 836 836 837 838 838 839 838 837 837 836 835 835 835 835 837 839 840 840 841 841 840 840 840 840 839 839 838 837 837 836 835 834 833 832 831
771 770 766 762 759 761 760 753 746 744 749 757 767 780 786 785 787 789 789 790 790 791 793 795 796 796 797 798 799 801 800 801 801 801 802 803 804 805 806 807 807 809 810 811 812 813 815 817 819 820 822 823 824 826 828 830 831 832 833 833 834 835 836 837 838 839 839 839 838 837 837 837 837 836 835 835 837 838 839 840 840 840 840 840 840 840 839 839 838 838 838 837 836 835 834 833 832
764 764 761 759 759 759 755 748 741 742 751 758 768 780 785 786 788 788 789 789 791 793 793 795 796 796 797 799 800 801 801 802 801 801 803 803 804 805 807 808 808 810 811 813 814 814 816 817 819 821 822 823 825 826 828 829 831 832 833 833 834 835 836 838 839 839 839 839 839 839 838 838 838 837 836 836 837 838 840 840 840 840 840 840 841 841 840 840 839 839 838 837 837 835 834 833 831
757 758 756 754 756 757 751 746 739 738 750 760 768 779 784 784 787 787 788 790 792 793 794 795 796 796 797 798 800 800 801 801 801 802 803 803 805 806 808 809 810 811 813 814 815 815 816 817 819 821 822 824 825 826 828 829 830 831 833 833 834 835 837 838 839 840 841 841 840 840 840 840 839 838 838 838 839 840 841 841 841 840 840 841 842 842 841 841 840 840 839 838 837 835 834 833 831
757 758 757 755 755 753 747 743 740 737 750 767 773 781 785 785 788 788 787 791 792 791 792 794 795 795 796 797 799 800 800 800 801 802 803 804 806 807 808 809 810 812 813 815 816 816 817 818 820 821 823 825 826 827 828 830 831 832 832 834 834 836 837 838 840 842 842 842 841 841 841 841 841 840 839 840 841 841 841 841 841 841 841 842 842 842 841 841 840 840 839 838 837 836 835 834 831
759 758 758 759 753 750 747 742 740 739 752 775 780 781 788 786 786 789 788 790 792 790 790 791 792 794 795 796 797 798 799 800 800 801 803 805 806 807 808 810 811 811 813 815 816 817 818 819 820 822 823 825 827 828 829 831 832 833 833 834 835 836 838 839 841 842 843 842 842 842 842 842 842 841 841 842 842 842 842 841 841 842 842 842 842 842 841 841 841 840 839 838 837 836 836 835 833
758 759 761 760 751 751 753 746 745 746 754 773 781 782 789 789 788 789 788 789 790 790 790 790 791 791 791 792 794 796 798 799 800 801 804 805 806 807 808 810 811 811 813 815 816 818 819 820 821 822 824 825 827 828 830 831 832 834 834 835 836 837 839 840 841 842 843 842 842 842 843 843 842 842 842 842 842 842 842 842 842 842 842 842 842 842 842 841 841 840 839 838 838 837 837 836 835
757 757 759 757 750 747 749 749 753 760 764 768 777 791 794 790 791 791 788 789 791 791 791 792 792 791 790 792 793 794 795 796 798 800 803 804 805 806 807 809 810 811 813 815 816 818 819 820 821 822 824 825 827 828 830 831 832 833 834 835 837 838 840 841 841 842 843 842 842 843 843 843 842 842 842 843 843 842 842 843 843 843 842 842 842 842 842 842 841 840 839 839 838 838 837 837 836
758 753 751 751 748 744 748 752 757 776 787 772 771 797 805 792 790 792 790 791 792 792 793 793 792 791 791 793 793 793 794 795 796 798 800 802 803 805 806 808 809 811 813 814 816 818 819 820 821 822 824 825 827 828 830 831 831 832 833 834 836 838 840 841 841 842 843 842 842 843 843 843 842 842 842 843 843 843 843 844 844 843 843 843 843 843 843 842 841 841 840 840 839 839 838 837 838
761 748 742 745 746 746 752 755 759 779 790 771 762 784 803 803 797 792 790 792 793 793 793 793 791 791 791 792 793 792 793 794 795 797 799 800 802 803 805 807 808 810 812 814 816 818 819 820 821 822 823 825 826 828 830 831 831 832 832 833 835 837 838 840 842 842 842 842 842 842 842 843 843 843 843 843 844 844 845 845 844 844 844 844 844 844 843 843 842 842 841 841 840 840 839 838 839
755 740 736 743 745 748 751 753 760 769 771 768 764 768 790 806 799 791 790 791 795 794 793 792 790 790 790 790 791 791 791 793 794 796 797 799 800 802 804 806 807 810 811 814 816 818 819 820 821 822 824 825 826 828 830 831 831 832 832 834 835 837 838 840 841 842 842 843 842 842 842 843 843 843 844 844 845 845 845 845 845 845 845 845 845 844 844 844 844 843 843 842 841 841 840 840 841
743 734 736 740 741 746 746 748 756 761 768 780 776 768 787 803 794 791 795 794 795 793 789 788 787 788 788 788 789 789 790 791 792 794 796 798 800 801 803 805 807 809 811 814 816 817 819 820 821 823 824 825 826 828 830 831 831 831 832 834 835 837 838 839 841 841 842 842 842 843 843 843 844 844 845 845 846 846 846 846 846 846 846 846 846 845 845 845 845 845 844 844 843 842 842 842 842
734 731 736 737 738 742 743 747 752 761 777 786 777 767 784 802 793 790 799 796 791 788 784 784 784 785 786 786 787 788 789 791 793 794 795 798 800 801 803 805 807 810 812 814 816 817 819 820 821 822 824 825 826 828 829 831 831 831 832 833 835 837 838 839 840 841 842 842 842 843 844 844 845 845 845 846 847 847 846 847 847 847 847 847 847 846 847 847 847 846 845 845 844 844 844 844 844
730 731 738 741 741 741 743 747 752 769 784 778 768 762 770 793 796 785 783 777 771 776 781 783 783 783 784 784 784 786 788 790 792 794 796 798 800 801 803 805 807 810 812 814 816 817 819 820 821 822 824 825 826 827 829 830 831 832 833 833 834 836 837 838 839 840 842 842 842 843 844 845 845 846 846 847 847 847 847 848 848 848 848 847 848 848 848 848 847 847 846 846 845 845 845 845 846
731 734 740 748 751 748 751 755 757 776 783 764 758 760 760 778 789 776 766 758 756 764 769 774 778 779 780 781 782 783 786 789 791 793 795 797 799 801 802 805 807 810 812 814 815 817 819 820 821 822 823 825 826 827 828 829 831 832 833 834 835 836 836 837 838 840 841 841 842 844 844 845 846 846 847 848 848 849 849 849 849 848 848 848 848 848 849 848 848 848 847 847 847 847 847 847 847
736 739 746 758 762 762 767 768 767 772 767 749 747 758 762 766 767 759 755 754 754 754 754 760 767 771 775 777 779 781 784 787 789 791 794 796 797 799 801 804 807 809 812 813 815 817 818 820 821 821 823 825 826 827 828 829 831 832 833 834 835 836 836 837 838 839 840 841 843 844 844 845 846 847 848 849 849 850 850 850 849 849 849 849 849 849 849 849 849 848 848 848 848 849 849 849 850
737 741 748 759 766 773 779 775 772 768 756 743 741 752 763 760 751 747 746 745 743 744 748 754 759 764 769 773 776 779 782 785 788 790 793 794 796 798 800 802 806 809 811 813 815 817 819 820 821 822 823 825 826 827 828 829 831 832 833 834 834 836 836 837 839 839 840 842 843 844 845 846 847 848 849 850 851 851 850 850 850 850 850 850 850 850 850 850 850 849 849 849 850 851 851 851 852
732 731 738 750 753 761 770 767 766 763 753 748 747 754 761 755 744 738 735 735 738 744 752 756 762 766 768 772 775 778 781 783 786 789 791 793 795 797 799 802 805 809 811 813 815 817 818 820 821 822 823 825 826 827 828 829 831 832 833 834 835 836 836 837 839 840 841 842 843 844 846 847 848 849 851 851 852 851 851 851 851 851 851 851 851 851 851 851 851 851 851 851 851 853 853 853 854
728 725 734 744 738 738 750 755 752 749 749 752 755 759 757 747 740 735 732 739 746 751 756 760 766 770 771 773 775 776 780 782 784 788 790 792 794 796 799 802 806 808 811 813 814 816 818 820 821 822 823 825 826 827 829 830 831 832 833 834 835 836 837 838 839 841 841 842 843 845 847 848 849 850 851 852 852 852 852 852 852 852 852 852 852 852 852 852 852 852 852 852 853 854 855 855 855
725 729 735 732 724 726 740 752 751 746 749 755 758 764 762 752 748 743 739 746 752 754 759 762 766 770 771 772 772 775 777 780 783 785 788 791 794 796 799 802 805 808 810 812 814 816 818 819 821 822 823 825 826 828 829 830 831 833 833 834 835 836 837 838 839 841 842 843 844 846 847 849 850 851 852 852 852 853 853 852 852 852 852 853 853 853 853 853 853 853 854 854 855 856 856 856 856
719 730 727 720 723 725 730 746 756 754 754 755 756 762 762 759 757 753 750 754 757 757 760 764 767 769 769 769 770 772 775 778 781 784 787 791 793 795 798 802 805 807 809 811 814 816 818 820 821 822 824 825 827 828 829 831 832 833 834 834 835 836 837 838 839 841 842 844 845 847 849 850 851 852 852 853 853 853 853 853 853 853 853 853 854 854 854 854 855 855 856 856 857 857 857 857 858
707 713 710 716 732 736 733 742 753 757 759 760 759 760 756 755 757 757 756 757 756 757 759 763 766 766 765 766 767 771 774 778 781 783 787 789 791 794 797 801 804 806 809 811 814 816 818 820 822 823 825 826 828 830 831 832 832 833 834 834 836 837 837 839 840 841 843 844 846 848 850 851 852 853 853 853 853 853 853 854 854 854 854 854 854 854 855 856 856 857 857 857 858 858 858 858 859
702 704 706 709 719 725 728 735 741 748 756 760 765 767 757 746 746 748 749 749 749 753 757 759 760 760 759 761 765 769 772 776 779 782 785 787 790 793 796 800 803 805 808 810 813 816 818 820 822 824 826 827 829 831 831 832 833 833 834 835 836 837 838 839 841 842 844 845 847 849 850 852 852 853 853 853 853 854 854 854 854 855 855 855 855 855 856 857 857 858 858 859 859 859 859 860 861
708 712 715 713 711 715 721 728 730 734 746 754 765 773 754 732 732 734 735 737 738 741 746 750 753 755 755 758 761 766 769 773 777 779 783 787 789 792 796 800 803 805 808 810 813 815 817 820 822 823 826 828 829 831 832 833 833 833 834 835 837 837 838 840 842 843 845 847 849 850 851 852 852 853 853 853 854 854 854 855 855 855 855 856 856 857 857 858 858 858 859 860 860 860 860 861 862
706 709 712 711 712 716 727 736 729 721 732 741 751 760 743 722 721 724 724 728 729 731 736 743 747 750 753 756 759 763 767 770 775 778 782 786 788 792 796 800 803 805 807 810 813 815 817 820 822 823 825 827 829 831 832 833 833 833 834 836 837 838 839 841 842 844 846 848 849 851 852 852 852 853 854 854 854 855 855 855 855 856 856 857 857 857 858 858 858 859 860 861 861 861 862 862 863